Location: Binningen
(47.7924°N, 8.7261°E)
Time: 08:05:16
(UTC+00:00)

OBJECT-B - Pass Details

Date: 17 May 2021
Orbit: 414 x 423 km, 97.0° (Epoch: 05 June)

Event Time Altitude Azimuth Distance (km) Brightness Sun altitude
Rises 19:52:31 0° 196° (SSW) 2,372 4.3 -8.1°
Reaches altitude 10° 19:54:49 10° 213° (SSW) 1,513 3.5 -8.3°
Maximum altitude 19:57:23 22° 266° (W) 994 3.2 -8.7°
Drops below altitude 10° 20:00:00 10° 319° (NW) 1,524 5.2 -9.0°
Sets 20:02:20 0° 335° (NNW) 2,395 6.0 -9.3°
